Temp
75 73 73 73 73 72 73 73 73 72 72 72 71 72 71 68 66 63 62 65 66 71 74 72 72 74 74 74 73 74 74 76 78 76 75 73 72 74 74 74 74 74 74 73 73 74 74 73 74 74 74 75 75 75 74 74 74 73 73 73 73 72 72 71 70 71 71 71 71 71 71 72 72 72
75 75 73 73 72 74 74 73 74 73 72 71 71 71 71 71 70 66 65 66 66 67 69 74 71 71 73 73 73 74 74 76 79 75 75 73 73 74 73 73 73 74 73 73 72 72 73 73 73 73 74 74 74 74 74 74 73 73 73 72 72 72 72 71 70 70 70 70 70 70 71 71 70 70
75 74 74 73 73 73 73 74 74 73 73 71 71 71 70 70 72 69 66 65 67 70 71 72 73 73 73 75 75 74 74 76 78 76 74 74 75 75 73 73 73 72 73 72 72 71 71 71 71 71 72 72 72 72 73 73 73 73 73 72 72 72 72 71 69 70 70 70 70 69 70 70 69 69
76 75 74 74 74 74 72 73 74 72 72 73 72 71 70 70 70 71 68 67 69 68 72 71 72 74 73 73 73 73 74 76 78 75 74 74 76 75 74 74 73 72 72 72 72 71 70 69 70 71 71 72 72 72 72 72 72 72 72 72 71 71 71 69 70 70 70 70 69 69 69 69 69 69
77 76 75 75 75 74 73 73 73 73 72 72 72 72 71 71 70 70 69 68 68 68 67 70 71 74 73 71 73 73 73 73 74 75 73 73 73 73 73 73 73 72 71 71 71 70 70 69 70 70 71 71 72 72 72 72 71 70 71 71 69 69 70 69 69 69 69 69 69 69 69 69 69 69
77 76 75 76 76 75 75 74 74 74 73 72 72 71 72 72 71 71 71 69 69 69 68 69 69 70 72 73 72 73 72 73 72 72 72 72 73 73 73 71 72 71 71 71 70 70 70 69 69 70 70 70 71 71 71 71 69 69 70 69 68 68 68 67 68 68 68 68 68 68 68 68 68 69
77 76 76 76 76 76 74 75 75 75 74 73 73 73 72 72 72 71 72 70 68 68 68 68 69 70 71 72 72 72 73 74 73 72 72 72 72 73 72 72 72 72 70 70 70 70 69 69 69 69 69 69 70 70 69 69 68 68 68 67 66 66 67 66 66 67 67 67 67 67 68 67 67 68
77 77 76 76 76 76 75 75 74 74 74 73 73 73 72 72 72 72 71 72 71 68 68 68 69 70 69 70 70 72 72 72 71 72 72 72 72 72 72 71 72 72 70 70 69 70 69 69 68 67 68 68 67 68 67 67 67 66 66 65 65 64 65 63 63 64 64 64 64 66 66 66 66 66
77 77 77 77 77 76 75 76 75 75 73 74 73 72 72 71 72 72 71 71 70 69 68 69 69 69 70 71 71 71 71 70 70 69 70 71 71 71 72 72 73 72 71 70 70 69 69 69 68 68 67 67 66 66 66 66 65 65 64 62 62 63 63 62 62 62 63 62 62 63 64 65 65 64
78 77 77 78 77 76 76 76 76 75 74 74 73 73 72 72 71 70 70 70 69 69 69 69 69 66 69 69 70 71 71 71 69 68 69 69 69 69 70 71 74 75 74 72 72 70 69 69 68 68 68 67 66 65 65 65 64 63 61 60 61 63 62 61 61 61 60 60 60 61 62 63 63 64
79 78 78 78 78 77 77 77 77 76 76 75 74 74 74 72 70 70 70 69 69 69 69 68 68 69 68 70 70 70 71 72 72 70 68 68 70 69 69 70 72 75 75 73 73 73 72 72 71 67 65 66 66 65 64 64 63 62 61 59 59 60 60 61 60 59 59 60 59 59 58 58 60 62
79 79 79 79 79 78 78 78 78 77 76 76 75 75 75 73 71 71 70 69 69 68 68 69 68 67 68 66 68 69 68 68 68 70 70 69 69 68 68 69 70 71 72 72 73 72 71 71 70 68 67 66 66 65 64 65 65 64 61 60 62 62 60 60 60 59 58 58 58 58 58 58 58 60
79 79 79 79 80 79 76 74 75 75 74 77 75 75 75 74 73 72 70 70 69 69 69 69 68 66 66 68 68 67 67 68 71 72 69 70 70 69 68 69 70 71 70 71 72 71 71 71 70 69 68 68 68 66 67 67 67 65 62 61 63 63 61 60 60 59 58 57 57 56 58 58 57 57
79 79 80 80 76 73 72 71 70 71 70 71 76 77 75 75 74 73 71 70 70 70 69 70 69 67 68 70 69 70 71 72 71 69 68 68 69 65 66 68 69 70 71 70 69 71 72 71 70 69 69 70 71 68 66 67 68 66 64 63 63 63 62 60 60 59 58 57 57 56 56 56 57 57
78 79 79 80 78 73 72 72 69 69 69 69 70 72 73 73 76 74 72 72 72 71 70 71 70 70 70 71 72 71 73 72 71 71 69 69 68 66 65 65 68 71 71 69 69 70 71 70 69 69 69 70 69 69 68 67 66 66 64 64 64 63 63 62 61 60 58 58 58 57 56 56 56 56
79 79 79 79 80 79 78 78 75 70 68 67 68 69 70 70 71 73 75 74 72 72 71 71 71 71 71 72 72 72 72 72 71 71 70 69 68 67 66 67 67 68 72 70 68 69 70 70 70 69 70 69 69 70 68 66 64 64 64 63 63 62 63 63 63 62 60 60 61 60 59 58 58 57
79 79 78 79 79 80 74 75 78 77 74 67 65 67 68 68 68 69 70 72 77 76 73 72 72 72 72 72 72 74 73 73 71 70 69 69 69 69 68 69 70 68 70 70 68 68 70 68 69 68 70 69 69 70 67 66 65 64 64 63 63 63 63 63 63 63 63 62 60 58 58 59 59 58
79 79 79 78 78 79 79 78 78 78 77 76 73 71 71 73 73 67 67 67 69 75 76 75 73 75 75 73 75 75 75 72 71 71 70 70 69 69 70 73 73 69 70 70 68 65 68 67 68 68 70 68 68 68 68 66 65 64 63 62 62 62 62 63 62 62 62 62 60 58 57 56 56 56
80 80 79 79 79 79 79 79 78 78 78 77 76 74 73 74 75 76 75 74 74 74 77 78 77 77 77 76 77 76 75 75 75 75 74 73 72 73 73 72 69 67 70 71 68 66 69 66 66 68 69 67 67 68 66 66 65 64 62 62 62 62 62 63 62 62 61 61 60 59 57 56 55 55
80 80 80 80 79 80 79 75 68 71 78 77 76 75 75 74 75 77 74 72 73 76 78 79 79 80 80 75 77 78 77 75 75 76 75 72 70 69 68 68 71 70 69 71 70 67 67 66 67 68 68 66 66 66 66 65 65 64 62 62 62 61 61 62 62 62 61 61 60 59 57 55 54 54
81 80 81 80 80 80 80 74 67 65 69 77 76 76 75 75 76 76 78 71 67 68 68 68 70 71 71 69 68 67 69 74 75 74 72 70 71 68 67 67 68 69 69 69 72 71 68 66 68 67 65 65 66 65 65 65 63 63 62 62 62 61 60 61 61 61 61 60 60 59 58 56 54 55
80 81 76 79 81 80 80 71 65 65 67 75 77 76 75 75 74 76 78 79 75 66 65 66 67 68 68 69 68 67 66 67 70 74 71 73 72 69 68 67 68 70 69 70 72 68 69 67 66 66 63 64 64 66 64 64 64 63 61 60 61 60 60 59 60 61 60 60 59 58 58 56 55 54
80 81 78 73 75 78 77 68 65 63 66 76 77 77 76 75 75 77 77 77 77 76 73 73 72 72 71 72 72 73 66 67 73 76 76 76 73 70 70 70 68 66 68 71 73 68 68 65 64 66 61 61 62 62 64 64 63 63 64 63 63 60 60 59 58 57 58 58 58 58 57 56 55 56
80 80 80 76 65 64 66 64 62 61 60 74 77 78 77 76 76 79 77 78 78 77 77 76 75 75 76 76 75 75 75 71 72 75 77 77 76 73 72 71 70 68 70 70 73 70 70 68 66 66 67 62 60 60 62 62 63 64 64 63 62 62 61 60 59 57 56 56 56 57 56 55 55 55
79 79 80 81 71 62 61 60 60 59 58 62 76 78 78 78 79 77 79 77 73 77 77 76 76 75 76 76 76 76 75 75 75 74 75 78 78 76 73 72 71 71 73 69 71 71 68 67 67 64 63 64 58 60 61 63 62 62 63 63 63 62 62 61 60 60 58 56 55 54 54 55 55 56
79 79 80 80 74 65 60 59 58 57 58 58 68 76 68 68 68 75 78 79 77 76 76 76 76 75 75 75 75 75 76 76 76 76 76 76 78 79 78 76 73 71 72 70 68 72 69 63 69 64 64 62 60 60 59 59 61 61 62 63 64 63 63 63 61 59 59 59 59 56 56 56 55 56
79 80 80 80 71 63 59 57 56 56 57 57 63 61 62 63 65 68 75 76 75 75 74 74 74 75 75 74 74 75 75 76 77 77 77 77 75 74 74 73 77 77 77 71 71 73 71 68 69 67 64 65 63 57 61 61 59 59 57 60 62 63 63 64 61 60 60 59 60 58 55 55 54 55
79 80 81 78 66 60 56 55 56 56 56 63 59 57 58 61 63 69 72 69 69 68 68 69 72 73 75 75 75 75 76 76 77 75 73 72 72 71 71 73 76 77 76 71 71 73 73 71 68 69 69 65 64 61 61 58 59 61 61 60 61 62 62 62 62 62 61 60 59 59 57 57 58 54
74 60 52 53 56 57 56 55 54 55 55 54 54 55 56 59 64 67 68 69 68 67 68 69 71 73 74 76 76 77 78 77 76 71 70 71 70 70 70 71 73 75 76 72 72 72 73 72 69 68 67 67 66 65 64 61 61 60 62 59 57 60 61 61 62 62 61 58 58 57 58 58 56 59
56 56 56 56 60 61 62 65 67 68 68 60 57 56 57 63 64 65 66 67 67 67 67 68 69 72 72 73 76 77 76 72 68 67 67 67 68 69 69 69 71 74 74 72 73 72 71 72 71 68 67 66 68 65 64 61 58 60 62 63 61 61 61 61 61 60 62 59 58 58 58 57 58 58
67 68 67 68 62 60 60 61 60 62 63 64 65 66 65 66 66 67 67 68 67 66 67 68 69 68 69 70 70 71 70 68 67 68 67 68 68 69 68 68 68 68 68 69 70 70 70 71 70 69 66 65 65 66 64 64 63 60 60 61 62 62 60 59 60 60 60 60 58 57 56 57 57 62
70 69 65 64 68 69 69 70 69 68 67 66 66 67 67 67 67 66 63 63 66 67 68 69 68 68 68 67 68 68 67 67 68 68 68 69 69 69 68 66 65 66 65 66 68 70 71 71 69 68 69 67 64 63 62 63 63 61 60 61 62 59 58 61 60 60 58 57 55 54 55 55 56 59
67 66 65 66 66 66 67 68 69 70 70 70 69 69 69 69 69 68 67 67 67 67 67 67 67 67 68 68 68 68 67 67 68 70 68 68 67 67 67 65 65 65 65 65 65 65 66 66 69 66 66 67 67 63 60 60 60 60 61 59 59 60 59 60 62 60 56 57 57 56 54 55 57 59
64 63 63 64 64 65 64 65 66 67 67 67 68 69 65 68 68 68 68 68 68 68 67 68 67 68 68 68 68 67 67 68 67 67 65 67 67 65 65 65 65 67 67 66 65 63 63 63 62 62 63 63 64 64 66 64 60 59 60 59 60 60 59 59 59 60 58 58 56 54 53 54 57 55
61 61 61 62 63 63 63 63 64 64 64 64 65 66 66 67 66 66 67 67 67 66 66 66 67 67 67 67 68 67 67 67 67 67 67 66 67 66 65 64 65 67 66 65 63 61 61 60 59 57 56 57 57 59 63 65 63 59 59 59 60 60 59 59 60 58 58 56 55 54 55 55 56 56
61 60 61 60 61 61 61 61 62 63 62 63 63 64 64 64 66 65 66 66 67 67 66 66 66 66 67 67 67 67 67 66 67 67 67 66 66 66 66 66 66 66 66 65 65 62 60 59 58 57 55 54 54 53 56 62 64 62 60 58 58 59 59 58 59 58 56 55 55 55 53 54 56 57
58 58 58 59 58 60 61 61 61 62 62 62 62 63 63 63 64 65 66 65 65 65 66 66 65 65 66 66 66 65 66 66 66 66 66 67 67 67 65 64 64 65 65 66 65 61 60 58 58 57 55 54 54 53 53 58 59 62 64 60 58 58 58 56 57 55 56 56 54 55 55 55 55 55
56 55 56 57 57 58 59 60 60 61 61 62 62 62 62 63 64 65 66 65 64 64 65 65 65 64 65 65 65 66 66 67 66 65 65 66 66 66 66 65 64 64 65 66 64 61 60 59 57 58 57 54 53 53 52 54 57 56 59 62 59 59 59 57 55 56 55 54 56 56 53 52 54 56
55 57 57 58 58 58 59 59 61 61 61 61 61 62 62 63 64 65 64 64 65 64 65 64 64 64 64 65 64 65 65 65 65 65 65 66 67 67 66 66 65 65 64 64 62 60 59 58 58 58 57 56 55 55 55 53 54 58 58 57 61 58 57 58 57 56 56 54 54 54 54 54 56 58
58 59 59 59 58 59 59 61 61 61 62 62 63 64 63 63 63 63 63 62 62 63 63 63 62 61 63 63 64 64 65 65 65 65 65 65 65 64 65 65 64 64 63 62 60 59 57 57 58 58 58 58 59 59 57 58 57 59 60 57 56 61 59 59 58 57 54 56 55 54 55 52 54 49
59 58 59 58 59 60 61 62 62 63 64 64 64 61 63 62 62 62 62 61 61 61 61 62 63 63 63 64 64 64 64 64 65 65 65 64 63 63 63 62 64 64 63 61 60 58 57 59 62 62 63 58 57 57 55 53 51 53 56 59 54 56 58 60 61 58 57 54 55 56 54 52 51 52
59 59 58 58 59 62 61 62 63 63 63 63 62 62 61 61 61 58 60 60 61 61 61 62 63 63 63 64 63 63 63 63 63 64 63 64 64 63 61 62 63 63 62 61 59 58 59 61 61 60 57 56 56 54 52 52 51 53 57 56 57 54 54 57 60 60 61 57 55 50 48 48 49 50
59 59 60 60 60 61 62 62 63 62 62 61 61 61 61 61 61 60 60 60 60 60 60 60 62 62 63 64 64 64 63 63 63 63 63 63 63 63 63 63 63 63 63 62 61 60 58 58 58 57 56 56 55 55 52 53 54 55 55 56 56 56 57 56 56 57 58 59 61 60 57 52 48 48
60 61 62 61 61 60 61 61 61 60 60 60 59 60 60 59 59 59 59 59 59 59 59 59 59 60 60 62 63 64 64 64 64 63 63 63 63 63 62 62 61 61 60 59 57 57 57 57 57 56 55 54 55 54 53 53 55 55 56 56 55 56 56 57 57 55 55 55 56 57 57 58 57 57
60 60 60 60 60 61 59 60 60 60 59 59 59 59 58 58 58 58 58 58 58 59 59 58 58 58 58 58 58 58 60 58 61 63 63 63 62 61 61 58 56 56 56 56 56 55 56 55 56 56 55 55 55 55 55 55 55 56 56 56 57 57 57 56 55 54 54 53 56 56 55 56 57 57
MSLP
1018.99 1019.19 1019.23 1019.31 1019.27 1019.27 1019.27 1019.39 1019.55 1019.63 1019.71 1019.75 1019.87 1020.07 1020.67 1021.15 1022.19 1022.95 1023.11 1022.63 1022.35 1021.43 1020.99 1021.39 1020.67 1020.27 1020.27 1020.39 1020.27 1020.39 1020.31 1020.19 1020.23 1020.35 1020.47 1020.63 1020.67 1020.59 1020.63 1020.67 1020.75 1020.83 1020.87 1020.95 1020.99 1021.03 1021.11 1021.19 1021.31 1021.35 1021.35 1021.31 1021.31 1021.35 1021.35 1021.39 1021.43 1021.47 1021.51 1021.55 1021.55 1021.51 1021.47 1021.47 1021.47 1021.47 1021.47 1021.47 1021.43 1021.39 1021.35 1021.31 1021.23 1021.19
1018.79 1018.91 1019.07 1019.15 1019.19 1018.99 1019.11 1019.15 1019.15 1019.35 1019.55 1019.75 1019.79 1019.91 1019.99 1020.23 1021.11 1021.75 1022.51 1022.23 1021.43 1021.07 1020.59 1020.39 1020.35 1020.11 1020.11 1020.03 1020.15 1020.07 1020.03 1019.83 1019.95 1020.11 1020.23 1020.39 1020.39 1020.35 1020.39 1020.47 1020.51 1020.55 1020.63 1020.71 1020.79 1020.83 1020.91 1020.99 1021.07 1021.11 1021.15 1021.15 1021.15 1021.15 1021.19 1021.23 1021.31 1021.35 1021.39 1021.43 1021.43 1021.43 1021.39 1021.43 1021.43 1021.43 1021.43 1021.43 1021.39 1021.39 1021.35 1021.27 1021.23 1021.19
1018.59 1018.83 1018.99 1018.99 1019.03 1018.91 1018.99 1018.95 1018.99 1019.03 1019.23 1019.43 1019.55 1019.59 1019.71 1020.03 1020.03 1020.79 1021.31 1022.23 1020.79 1020.39 1020.55 1019.99 1019.51 1019.63 1019.63 1019.59 1019.75 1019.83 1019.75 1019.67 1019.67 1019.87 1019.99 1020.07 1020.07 1020.11 1020.19 1020.19 1020.23 1020.31 1020.39 1020.43 1020.55 1020.63 1020.71 1020.79 1020.83 1020.87 1020.95 1020.99 1020.99 1021.03 1021.07 1021.11 1021.15 1021.23 1021.27 1021.31 1021.31 1021.31 1021.31 1021.35 1021.39 1021.39 1021.39 1021.35 1021.35 1021.31 1021.31 1021.27 1021.23 1021.19
1018.39 1018.59 1018.79 1018.79 1018.83 1018.75 1018.91 1018.99 1018.91 1018.95 1018.95 1018.95 1019.27 1019.35 1019.51 1019.67 1019.83 1020.07 1020.67 1021.19 1020.79 1019.95 1019.83 1019.55 1019.35 1019.19 1019.35 1019.35 1019.71 1019.71 1019.59 1019.39 1019.43 1019.59 1019.71 1019.75 1019.83 1019.95 1019.95 1019.91 1019.95 1020.03 1020.07 1020.15 1020.23 1020.35 1020.43 1020.51 1020.59 1020.67 1020.71 1020.79 1020.83 1020.87 1020.91 1020.99 1021.03 1021.11 1021.15 1021.15 1021.19 1021.19 1021.23 1021.31 1021.35 1021.35 1021.31 1021.27 1021.27 1021.27 1021.27 1021.23 1021.19 1021.15
1018.19 1018.39 1018.51 1018.51 1018.43 1018.43 1018.79 1018.83 1018.79 1018.71 1018.71 1018.79 1018.87 1018.99 1019.19 1019.43 1019.63 1019.95 1020.35 1020.71 1020.71 1019.95 1019.43 1019.47 1019.27 1019.03 1019.19 1019.63 1019.31 1019.55 1019.51 1019.55 1019.43 1019.39 1019.47 1019.55 1019.67 1019.71 1019.71 1019.67 1019.67 1019.71 1019.79 1019.83 1019.91 1020.03 1020.15 1020.23 1020.31 1020.39 1020.47 1020.51 1020.59 1020.67 1020.75 1020.83 1020.91 1020.99 1021.03 1021.03 1021.07 1021.11 1021.15 1021.23 1021.27 1021.23 1021.23 1021.19 1021.19 1021.19 1021.23 1021.19 1021.11 1021.07
1017.91 1018.03 1018.31 1018.31 1018.23 1018.23 1018.43 1018.47 1018.59 1018.51 1018.55 1018.63 1018.83 1018.91 1019.03 1019.11 1019.39 1019.31 1019.75 1020.15 1020.31 1020.43 1019.67 1019.59 1019.19 1019.27 1019.11 1019.51 1019.07 1019.35 1019.51 1019.47 1019.39 1019.55 1019.55 1019.47 1019.39 1019.43 1019.43 1019.55 1019.43 1019.39 1019.47 1019.55 1019.63 1019.71 1019.79 1019.87 1019.99 1020.07 1020.15 1020.23 1020.31 1020.39 1020.51 1020.63 1020.71 1020.79 1020.83 1020.87 1020.91 1020.99 1021.07 1021.11 1021.15 1021.11 1021.11 1021.11 1021.11 1021.11 1021.11 1021.07 1021.03 1020.99
1017.59 1017.87 1017.99 1017.99 1017.95 1017.99 1018.31 1018.27 1018.19 1018.23 1018.35 1018.35 1018.55 1018.63 1018.71 1018.83 1018.83 1018.99 1018.99 1019.55 1020.19 1020.23 1019.95 1019.39 1019.51 1019.39 1019.31 1019.35 1019.19 1019.07 1018.99 1018.95 1019.07 1019.35 1019.43 1019.39 1019.27 1019.19 1019.15 1019.23 1019.19 1019.11 1019.19 1019.23 1019.35 1019.43 1019.51 1019.59 1019.67 1019.75 1019.83 1019.91 1020.03 1020.11 1020.27 1020.39 1020.47 1020.55 1020.63 1020.67 1020.75 1020.83 1020.91 1020.95 1020.99 1020.95 1020.95 1020.95 1020.99 1020.99 1020.99 1020.99 1020.95 1020.91
1017.35 1017.47 1017.67 1017.59 1017.63 1017.79 1018.11 1018.07 1018.11 1018.03 1018.07 1018.23 1018.31 1018.47 1018.51 1018.55 1018.55 1018.59 1018.79 1018.75 1019.11 1019.63 1020.07 1019.51 1019.39 1019.23 1019.39 1019.19 1018.87 1018.87 1018.87 1019.07 1019.19 1019.11 1019.03 1019.03 1019.15 1019.03 1018.99 1019.03 1019.03 1018.91 1018.95 1018.99 1019.07 1019.15 1019.23 1019.31 1019.43 1019.51 1019.59 1019.67 1019.79 1019.87 1020.03 1020.11 1020.19 1020.27 1020.35 1020.43 1020.55 1020.63 1020.71 1020.79 1020.83 1020.79 1020.79 1020.83 1020.87 1020.87 1020.91 1020.91 1020.87 1020.87
1016.83 1016.99 1017.11 1017.03 1017.27 1017.55 1017.95 1017.87 1017.95 1017.91 1018.03 1017.99 1018.15 1018.27 1018.27 1018.39 1018.35 1018.47 1018.59 1018.71 1018.83 1019.23 1019.59 1019.35 1019.03 1018.91 1018.99 1018.75 1018.71 1018.71 1019.11 1019.19 1019.19 1019.11 1019.19 1019.07 1019.03 1018.99 1018.79 1018.75 1018.63 1018.63 1018.67 1018.75 1018.83 1018.91 1018.95 1019.03 1019.19 1019.31 1019.35 1019.43 1019.51 1019.63 1019.71 1019.83 1019.87 1019.95 1020.07 1020.15 1020.27 1020.35 1020.43 1020.55 1020.63 1020.63 1020.67 1020.71 1020.75 1020.79 1020.83 1020.79 1020.79 1020.79
1016.31 1016.51 1016.55 1016.59 1016.83 1017.23 1017.55 1017.51 1017.39 1017.47 1017.67 1017.79 1017.95 1018.03 1018.07 1018.11 1018.31 1018.51 1018.63 1018.71 1018.87 1018.95 1018.99 1019.11 1019.11 1018.99 1019.03 1018.99 1018.79 1018.55 1018.67 1019.07 1019.39 1019.35 1019.15 1019.03 1018.95 1018.99 1019.03 1018.79 1018.55 1018.47 1018.59 1018.75 1018.71 1018.75 1018.79 1018.83 1018.91 1018.99 1019.07 1019.15 1019.23 1019.31 1019.43 1019.51 1019.59 1019.67 1019.79 1019.87 1019.95 1020.07 1020.19 1020.31 1020.39 1020.43 1020.51 1020.59 1020.67 1020.71 1020.71 1020.71 1020.71 1020.71
1015.87 1015.99 1016.07 1016.23 1016.39 1016.67 1016.75 1016.91 1016.95 1017.03 1017.23 1017.39 1017.51 1017.51 1017.67 1017.83 1018.19 1018.47 1018.55 1018.71 1018.87 1018.95 1019.03 1018.99 1018.87 1018.83 1018.67 1018.67 1018.87 1018.43 1018.35 1018.55 1018.67 1019.11 1019.43 1019.43 1018.75 1018.79 1018.79 1018.79 1018.47 1018.27 1018.31 1018.19 1018.19 1018.27 1018.31 1018.35 1018.47 1018.55 1018.67 1018.75 1018.83 1018.99 1019.11 1019.23 1019.27 1019.31 1019.55 1019.59 1019.67 1019.83 1019.99 1020.11 1020.19 1020.27 1020.35 1020.43 1020.55 1020.59 1020.59 1020.59 1020.59 1020.63
1015.39 1015.47 1015.63 1015.75 1015.83 1015.99 1016.07 1016.19 1016.23 1016.43 1016.75 1016.79 1017.07 1016.95 1017.23 1017.51 1017.91 1018.19 1018.35 1018.59 1018.75 1018.87 1018.95 1018.95 1018.95 1018.87 1018.79 1018.79 1018.47 1018.31 1018.59 1018.99 1018.95 1018.55 1018.67 1019.03 1018.83 1018.71 1018.43 1018.31 1018.43 1018.23 1018.23 1018.31 1018.15 1018.03 1018.07 1018.07 1018.11 1018.19 1018.31 1018.43 1018.55 1018.71 1018.83 1018.95 1018.99 1019.03 1019.27 1019.39 1019.43 1019.59 1019.75 1019.87 1019.95 1020.07 1020.19 1020.31 1020.39 1020.39 1020.43 1020.43 1020.43 1020.47
1014.95 1015.07 1015.15 1015.23 1015.27 1015.27 1015.39 1015.51 1015.59 1015.67 1015.75 1016.23 1016.67 1016.55 1016.71 1017.03 1017.39 1017.67 1017.99 1018.19 1018.39 1018.47 1018.59 1018.71 1018.59 1018.79 1018.87 1018.59 1018.67 1018.79 1018.75 1018.55 1017.87 1017.67 1018.19 1018.35 1018.07 1018.15 1018.39 1018.07 1017.79 1017.83 1018.03 1017.95 1017.95 1017.91 1017.75 1017.95 1017.95 1017.91 1018.03 1017.95 1018.07 1018.27 1018.39 1018.55 1018.63 1018.75 1018.95 1019.11 1019.19 1019.31 1019.47 1019.59 1019.71 1019.83 1019.95 1020.11 1020.19 1020.23 1020.23 1020.23 1020.23 1020.31
1014.67 1014.63 1014.71 1014.63 1014.75 1014.91 1015.07 1015.19 1015.31 1015.39 1015.39 1015.35 1015.43 1015.63 1016.07 1016.35 1016.75 1017.07 1017.43 1017.75 1017.79 1017.91 1018.23 1018.11 1018.23 1018.67 1018.47 1018.11 1018.03 1017.91 1017.43 1017.15 1017.35 1017.79 1017.99 1018.31 1017.83 1018.19 1018.31 1018.03 1017.51 1017.27 1017.59 1017.83 1017.91 1017.47 1017.19 1017.51 1017.59 1017.59 1017.67 1017.43 1017.55 1017.71 1017.99 1018.11 1018.15 1018.31 1018.55 1018.71 1018.91 1019.07 1019.19 1019.31 1019.47 1019.63 1019.75 1019.87 1019.99 1020.07 1020.07 1020.03 1020.03 1020.11
1014.39 1014.31 1014.31 1014.35 1014.43 1014.67 1014.83 1014.87 1014.87 1014.95 1014.99 1015.03 1015.07 1015.07 1015.11 1015.23 1015.67 1016.31 1016.83 1016.91 1016.91 1017.23 1017.31 1017.11 1017.47 1017.59 1017.51 1017.19 1017.03 1017.11 1016.83 1017.03 1017.07 1017.11 1017.31 1017.51 1017.83 1018.19 1018.51 1018.47 1017.15 1016.55 1016.95 1017.39 1017.55 1017.23 1016.71 1016.99 1017.39 1017.27 1017.19 1017.07 1017.19 1017.23 1017.35 1017.43 1017.67 1017.83 1018.07 1018.31 1018.55 1018.75 1018.91 1019.07 1019.23 1019.39 1019.55 1019.67 1019.79 1019.83 1019.83 1019.83 1019.87 1019.91
1013.99 1014.07 1014.15 1014.11 1014.07 1014.15 1014.19 1014.27 1014.51 1014.63 1014.63 1014.67 1014.67 1014.71 1014.71 1014.79 1014.83 1014.79 1015.19 1015.79 1016.35 1016.47 1016.67 1016.67 1016.51 1016.55 1016.51 1016.15 1016.27 1016.27 1016.43 1016.43 1016.63 1016.67 1016.83 1016.99 1017.19 1017.55 1017.79 1017.47 1017.31 1015.91 1015.91 1016.75 1017.15 1016.87 1016.31 1016.55 1016.83 1016.99 1016.75 1016.71 1016.79 1016.79 1016.83 1016.99 1017.15 1017.35 1017.59 1017.87 1018.15 1018.39 1018.63 1018.79 1018.99 1019.15 1019.31 1019.43 1019.51 1019.59 1019.55 1019.59 1019.67 1019.71
1013.51 1013.63 1013.83 1013.91 1013.75 1013.55 1013.63 1013.87 1013.95 1014.11 1014.27 1014.39 1014.39 1014.39 1014.47 1014.51 1014.51 1014.47 1014.35 1014.15 1014.31 1014.75 1015.47 1015.63 1015.63 1015.55 1015.47 1015.83 1015.35 1015.03 1015.23 1015.35 1016.19 1016.23 1016.55 1016.43 1016.51 1016.59 1016.75 1016.27 1016.03 1015.67 1015.31 1016.11 1016.75 1016.79 1016.15 1016.27 1016.55 1016.71 1016.23 1016.31 1016.43 1016.51 1016.51 1016.55 1016.71 1016.91 1017.15 1017.43 1017.71 1017.99 1018.27 1018.51 1018.71 1018.91 1019.03 1019.15 1019.27 1019.31 1019.31 1019.35 1019.43 1019.51
1012.99 1013.11 1013.35 1013.59 1013.55 1013.23 1013.23 1013.31 1013.47 1013.63 1013.75 1013.91 1014.23 1014.51 1014.55 1014.39 1014.11 1014.07 1013.79 1013.79 1013.91 1014.03 1014.31 1014.63 1014.79 1014.15 1014.47 1014.51 1013.91 1013.87 1014.23 1015.11 1015.39 1015.67 1015.79 1015.71 1016.11 1016.23 1015.83 1014.67 1014.67 1014.79 1015.03 1015.63 1016.15 1016.67 1015.99 1015.91 1016.19 1016.31 1015.83 1015.83 1016.03 1016.03 1016.03 1016.19 1016.31 1016.55 1016.83 1017.07 1017.31 1017.59 1017.87 1018.15 1018.43 1018.63 1018.75 1018.87 1018.99 1019.03 1019.07 1019.07 1019.15 1019.31
1012.31 1012.43 1012.63 1012.75 1012.79 1012.71 1012.71 1012.59 1012.83 1013.15 1013.27 1013.51 1013.71 1013.83 1013.95 1013.83 1013.51 1013.27 1013.19 1013.51 1013.79 1013.87 1013.63 1013.59 1013.35 1013.19 1013.31 1013.27 1013.19 1013.47 1013.79 1013.87 1013.91 1013.99 1014.19 1014.35 1014.51 1014.47 1014.23 1014.63 1014.75 1014.95 1014.75 1015.07 1015.83 1016.35 1015.39 1015.55 1016.03 1015.71 1015.55 1015.67 1015.75 1015.71 1015.79 1015.83 1016.03 1016.23 1016.47 1016.75 1016.95 1017.15 1017.47 1017.79 1018.07 1018.31 1018.47 1018.59 1018.67 1018.75 1018.75 1018.75 1018.87 1019.07
1011.71 1011.79 1011.95 1012.11 1012.19 1012.07 1012.07 1011.99 1012.23 1012.43 1012.63 1013.03 1013.15 1013.27 1013.19 1013.23 1012.95 1012.47 1011.75 1012.15 1012.55 1012.67 1012.67 1012.55 1012.31 1012.15 1012.27 1012.39 1012.63 1012.95 1013.27 1013.47 1013.55 1013.75 1013.83 1014.15 1014.55 1015.07 1015.39 1015.27 1014.79 1015.03 1014.67 1014.71 1015.27 1015.67 1015.35 1015.11 1015.59 1015.39 1015.27 1015.47 1015.67 1015.55 1015.59 1015.55 1015.71 1015.91 1016.15 1016.39 1016.55 1016.79 1017.11 1017.47 1017.71 1017.99 1018.19 1018.31 1018.43 1018.47 1018.43 1018.47 1018.59 1018.75
1011.19 1011.23 1011.27 1011.43 1011.47 1011.43 1011.39 1011.39 1011.75 1011.95 1012.27 1012.43 1012.51 1012.63 1012.75 1012.59 1012.43 1011.71 1011.39 1011.99 1012.15 1012.07 1011.99 1011.83 1011.71 1011.75 1011.95 1012.15 1012.27 1012.47 1012.59 1012.75 1013.03 1013.59 1014.23 1014.27 1014.43 1015.11 1015.27 1014.91 1015.03 1014.67 1014.51 1014.47 1014.39 1014.87 1015.19 1014.83 1015.03 1015.27 1015.23 1015.31 1015.31 1015.35 1015.31 1015.31 1015.51 1015.67 1015.87 1016.03 1016.23 1016.39 1016.79 1017.15 1017.43 1017.67 1017.87 1018.03 1018.15 1018.19 1018.15 1018.15 1018.27 1018.51
1010.71 1010.63 1010.71 1010.71 1010.75 1010.75 1010.67 1010.83 1011.19 1011.39 1011.79 1011.99 1011.87 1012.19 1012.39 1012.35 1011.95 1010.95 1011.23 1011.83 1011.59 1011.59 1011.79 1011.75 1011.67 1011.79 1011.83 1011.91 1011.95 1011.99 1012.07 1012.19 1012.43 1013.07 1013.43 1012.99 1013.91 1014.19 1014.31 1014.63 1014.43 1014.15 1014.03 1013.67 1013.79 1014.95 1014.35 1014.35 1014.63 1014.99 1015.07 1015.31 1015.11 1014.99 1015.11 1015.27 1015.39 1015.55 1015.71 1015.83 1015.91 1016.07 1016.35 1016.79 1017.11 1017.39 1017.59 1017.75 1017.87 1017.91 1017.87 1017.87 1018.07 1018.31
1010.27 1010.23 1010.15 1010.15 1010.03 1009.95 1009.95 1010.31 1010.51 1010.79 1011.15 1011.31 1011.31 1011.51 1011.79 1011.47 1010.95 1010.03 1011.27 1011.47 1011.43 1011.55 1011.71 1011.51 1011.55 1011.59 1011.43 1011.63 1011.63 1011.43 1011.51 1011.51 1011.59 1011.51 1011.47 1012.03 1012.87 1013.35 1013.51 1013.71 1014.11 1014.59 1013.43 1012.83 1013.03 1014.39 1013.95 1014.23 1014.27 1014.55 1015.39 1015.59 1014.91 1014.91 1015.03 1015.19 1015.27 1015.43 1015.63 1015.91 1016.03 1015.91 1016.07 1016.43 1016.83 1017.11 1017.31 1017.47 1017.59 1017.63 1017.63 1017.63 1017.91 1018.03
1009.95 1009.83 1009.71 1009.55 1009.55 1009.59 1009.67 1009.87 1009.99 1010.15 1010.43 1010.51 1010.47 1010.67 1010.87 1010.59 1010.03 1009.71 1010.59 1010.31 1010.67 1010.75 1010.63 1010.43 1010.47 1010.55 1010.43 1010.67 1010.75 1010.79 1010.87 1011.03 1010.95 1010.71 1010.67 1010.99 1011.47 1012.03 1012.35 1012.63 1012.95 1013.07 1012.07 1011.95 1012.11 1013.23 1012.99 1013.27 1013.91 1013.87 1013.87 1014.83 1015.31 1014.63 1014.79 1015.03 1015.03 1015.11 1015.35 1015.75 1016.03 1015.87 1015.95 1016.19 1016.63 1016.91 1017.15 1017.23 1017.35 1017.35 1017.39 1017.35 1017.63 1017.71
1009.67 1009.59 1009.35 1008.99 1008.83 1009.15 1009.31 1009.47 1009.51 1009.59 1009.79 1009.79 1009.75 1009.71 1009.63 1009.23 1008.75 1009.03 1009.59 1009.71 1009.87 1009.91 1009.75 1009.71 1009.87 1010.07 1010.07 1010.11 1010.07 1010.07 1009.95 1009.83 1009.83 1009.95 1009.87 1009.91 1009.99 1010.51 1011.15 1011.71 1012.07 1011.87 1011.07 1011.19 1011.39 1012.35 1012.95 1012.95 1013.35 1013.87 1014.03 1013.91 1013.95 1014.35 1014.43 1014.59 1014.79 1014.95 1015.03 1015.27 1015.51 1015.63 1015.75 1015.87 1016.23 1016.59 1016.83 1016.99 1017.07 1017.11 1017.11 1017.07 1017.27 1017.27
1009.11 1009.07 1008.87 1008.55 1008.35 1008.55 1008.71 1008.87 1008.99 1009.15 1009.35 1009.51 1009.59 1008.83 1008.55 1008.39 1008.43 1008.79 1008.79 1008.83 1009.31 1009.51 1009.43 1009.59 1009.87 1009.79 1009.71 1009.71 1009.55 1009.23 1008.91 1008.59 1008.55 1008.63 1008.63 1008.59 1008.59 1008.67 1009.07 1009.91 1010.75 1011.23 1010.63 1010.71 1010.79 1011.31 1012.15 1012.99 1012.55 1013.27 1013.51 1013.91 1013.95 1013.79 1014.31 1014.47 1014.35 1014.59 1014.71 1014.87 1015.03 1015.15 1015.27 1015.31 1015.75 1016.15 1016.47 1016.63 1016.71 1016.75 1016.75 1016.63 1016.87 1016.87
1008.59 1008.23 1008.03 1007.79 1007.87 1008.15 1008.23 1008.39 1008.55 1008.67 1008.79 1009.11 1009.11 1008.59 1008.43 1008.23 1008.11 1008.15 1008.43 1008.55 1009.19 1009.71 1010.07 1010.19 1009.75 1009.11 1008.87 1008.95 1008.59 1008.23 1007.95 1007.63 1007.71 1007.83 1007.75 1008.03 1008.55 1008.99 1009.31 1009.63 1009.59 1009.27 1009.03 1009.75 1009.95 1010.35 1011.03 1011.55 1011.59 1012.11 1012.75 1012.83 1013.27 1013.79 1013.63 1013.99 1014.11 1014.27 1014.71 1014.75 1014.79 1014.83 1014.87 1014.83 1015.15 1015.51 1015.91 1016.23 1016.27 1016.23 1016.31 1016.39 1016.51 1016.55
1007.71 1007.67 1007.59 1007.55 1007.63 1007.75 1007.87 1007.99 1008.19 1008.27 1008.43 1008.63 1008.43 1008.43 1008.31 1008.11 1007.99 1008.03 1008.11 1009.19 1010.35 1010.71 1010.59 1009.87 1009.35 1008.95 1008.15 1008.03 1008.07 1007.71 1007.27 1007.19 1007.27 1007.23 1007.79 1008.79 1009.19 1009.39 1009.51 1009.67 1009.51 1009.07 1009.11 1009.15 1009.19 1009.23 1009.71 1010.35 1010.95 1010.95 1011.19 1011.99 1012.55 1013.03 1013.19 1013.03 1012.99 1013.39 1013.79 1014.15 1014.39 1014.47 1014.63 1014.67 1014.67 1014.95 1015.27 1015.63 1015.87 1015.95 1016.11 1016.15 1016.19 1016.35
1007.47 1007.67 1007.79 1007.87 1007.87 1007.87 1007.99 1008.19 1008.43 1008.55 1008.59 1008.63 1008.63 1008.55 1008.59 1008.79 1008.95 1008.71 1008.51 1009.27 1010.31 1010.35 1009.55 1008.99 1008.55 1007.95 1007.59 1007.59 1007.27 1006.59 1006.39 1006.63 1007.03 1007.79 1008.51 1008.71 1008.63 1008.39 1008.47 1008.47 1008.23 1008.11 1008.27 1008.35 1008.39 1008.35 1008.59 1009.15 1009.83 1010.27 1010.75 1010.99 1011.39 1011.51 1011.83 1012.27 1012.47 1012.91 1013.15 1013.87 1014.39 1014.19 1014.27 1014.31 1014.31 1014.55 1014.83 1015.19 1015.39 1015.59 1015.71 1015.67 1015.71 1015.87
1007.75 1007.71 1007.75 1007.87 1007.87 1007.83 1007.87 1007.99 1008.03 1008.07 1007.99 1008.07 1008.11 1008.11 1008.23 1008.39 1008.35 1008.23 1008.11 1008.51 1009.07 1009.51 1008.51 1007.75 1007.75 1007.67 1008.31 1008.19 1006.83 1005.87 1006.11 1006.99 1007.43 1007.55 1007.31 1007.11 1007.11 1007.47 1007.71 1007.87 1007.71 1007.55 1007.63 1007.79 1007.87 1007.99 1008.31 1008.51 1008.75 1009.39 1010.07 1010.39 1010.43 1010.79 1011.11 1011.79 1012.39 1012.27 1012.63 1012.99 1013.19 1013.63 1013.79 1013.99 1014.19 1014.19 1014.35 1014.71 1014.99 1015.19 1015.23 1015.31 1015.35 1015.51
1007.51 1007.47 1007.51 1007.55 1007.63 1007.75 1007.83 1007.83 1007.75 1007.75 1007.71 1007.79 1007.71 1007.71 1007.71 1007.71 1007.63 1007.51 1007.55 1007.87 1008.27 1008.07 1007.75 1007.71 1007.23 1007.91 1007.87 1006.71 1006.59 1006.35 1006.75 1007.03 1006.71 1006.23 1006.35 1006.67 1006.63 1006.91 1007.03 1007.35 1007.55 1007.75 1007.47 1007.27 1007.15 1006.79 1006.87 1007.35 1007.67 1008.11 1008.99 1009.51 1009.83 1009.87 1010.15 1010.59 1011.23 1011.87 1012.23 1012.43 1012.83 1013.19 1013.19 1013.59 1013.71 1013.87 1013.91 1014.19 1014.55 1014.79 1014.95 1015.07 1015.15 1015.07
1007.15 1007.27 1007.27 1007.39 1007.43 1007.55 1007.59 1007.55 1007.59 1007.63 1007.67 1007.71 1007.71 1007.67 1007.63 1007.63 1007.55 1007.39 1007.31 1007.51 1007.67 1007.59 1007.39 1006.99 1006.79 1007.03 1006.99 1006.95 1006.47 1006.27 1006.79 1006.83 1005.91 1005.59 1005.79 1005.79 1005.79 1005.83 1006.27 1006.95 1006.99 1006.83 1006.63 1006.35 1006.11 1005.95 1005.91 1006.15 1006.63 1006.83 1007.03 1007.75 1008.79 1009.35 1009.79 1009.99 1010.31 1010.95 1011.51 1011.99 1012.27 1012.43 1012.63 1012.87 1013.27 1013.47 1013.63 1013.87 1014.31 1014.55 1014.63 1014.71 1014.79 1014.91
1007.31 1007.47 1007.67 1007.87 1007.99 1008.11 1008.15 1008.07 1007.99 1007.83 1007.71 1007.59 1007.55 1007.51 1007.43 1007.35 1007.23 1007.15 1007.23 1007.27 1007.11 1007.11 1007.11 1006.95 1006.75 1006.51 1006.35 1006.15 1005.87 1005.79 1005.87 1005.71 1005.23 1005.07 1005.31 1005.07 1005.27 1005.23 1005.43 1005.51 1005.39 1005.59 1005.75 1005.71 1005.79 1005.91 1005.87 1005.63 1005.67 1005.91 1006.27 1006.55 1007.03 1008.15 1009.27 1009.95 1010.11 1010.31 1010.79 1011.55 1011.99 1012.27 1012.39 1012.43 1012.63 1013.03 1013.47 1013.79 1014.03 1014.27 1014.39 1014.51 1014.47 1014.51
1007.55 1007.79 1007.91 1008.07 1008.19 1008.27 1008.31 1008.39 1008.31 1008.23 1008.11 1008.03 1007.87 1007.63 1007.43 1007.31 1007.19 1007.07 1006.95 1006.79 1006.55 1006.47 1006.43 1006.19 1006.11 1005.91 1005.75 1005.55 1005.31 1005.15 1004.95 1004.51 1004.35 1004.15 1004.35 1004.27 1004.39 1004.79 1004.79 1004.83 1004.51 1004.07 1004.11 1004.27 1004.63 1004.95 1005.51 1005.91 1006.07 1006.39 1006.75 1006.99 1007.39 1007.75 1008.03 1008.63 1009.47 1009.99 1010.23 1010.75 1011.27 1011.55 1011.87 1012.11 1012.27 1012.51 1012.95 1013.23 1013.67 1014.11 1014.19 1014.23 1014.27 1014.35
1007.75 1007.95 1008.03 1008.19 1008.19 1008.23 1008.27 1008.35 1008.39 1008.27 1008.27 1008.19 1008.07 1007.87 1007.63 1007.39 1007.23 1006.95 1006.75 1006.43 1006.15 1006.03 1005.95 1005.71 1005.51 1005.27 1005.15 1004.79 1004.47 1004.31 1003.91 1003.63 1003.31 1003.27 1003.19 1003.23 1003.31 1003.43 1003.47 1003.55 1003.23 1003.15 1003.15 1003.31 1003.51 1003.95 1004.51 1004.99 1005.67 1006.67 1007.35 1007.67 1008.07 1008.39 1008.31 1008.11 1008.35 1009.43 1009.95 1010.35 1010.55 1010.99 1011.55 1011.75 1011.91 1012.35 1012.71 1013.07 1013.39 1013.71 1013.87 1013.99 1014.03 1014.03
1008.07 1008.15 1008.23 1008.27 1008.27 1008.31 1008.39 1008.43 1008.39 1008.39 1008.39 1008.31 1008.19 1007.99 1007.79 1007.43 1007.03 1006.83 1006.51 1006.07 1005.95 1005.67 1005.47 1005.23 1004.91 1004.67 1004.35 1003.99 1003.67 1003.39 1003.07 1002.83 1002.55 1002.35 1002.31 1002.31 1002.43 1002.35 1002.27 1002.15 1001.95 1001.87 1001.99 1002.11 1002.35 1003.07 1003.75 1004.39 1004.95 1005.63 1006.51 1007.07 1007.59 1008.51 1008.51 1008.15 1007.91 1008.27 1009.27 1009.95 1010.43 1010.67 1011.15 1011.47 1011.63 1012.07 1012.55 1012.91 1013.23 1013.39 1013.63 1013.71 1013.75 1013.71
1008.23 1008.27 1008.35 1008.43 1008.43 1008.43 1008.51 1008.39 1008.39 1008.31 1008.27 1008.19 1008.03 1007.87 1007.71 1007.43 1006.95 1006.63 1006.15 1005.87 1005.71 1005.43 1005.11 1004.83 1004.39 1004.03 1003.71 1003.35 1003.03 1002.71 1002.43 1002.27 1001.91 1001.63 1001.47 1001.23 1001.11 1000.91 1000.87 1000.71 1000.83 1000.91 1001.31 1001.31 1001.75 1002.67 1003.23 1003.67 1004.07 1004.35 1005.27 1006.19 1006.63 1006.87 1007.35 1007.79 1008.07 1007.99 1008.19 1009.27 1010.07 1010.39 1010.87 1011.15 1011.59 1012.07 1012.19 1012.47 1012.91 1013.07 1012.99 1013.27 1013.35 1013.27
1008.39 1008.43 1008.59 1008.59 1008.63 1008.55 1008.51 1008.51 1008.47 1008.39 1008.19 1008.03 1007.87 1007.71 1007.51 1007.23 1006.79 1006.39 1005.99 1005.79 1005.47 1005.07 1004.67 1004.35 1003.83 1003.43 1003.03 1002.71 1002.47 1001.91 1001.51 1001.11 1000.87 1000.63 1000.43 1000.27 1000.11 999.79 999.63 999.67 999.87 1000.19 1000.35 1000.51 1001.07 1001.59 1002.15 1002.55 1002.99 1002.95 1002.95 1004.03 1005.19 1006.15 1007.15 1007.63 1008.03 1008.15 1008.19 1008.51 1009.39 1010.03 1010.47 1010.83 1011.51 1011.67 1011.87 1012.19 1012.31 1012.51 1012.71 1012.87 1012.87 1012.75
1008.27 1008.43 1008.43 1008.47 1008.47 1008.51 1008.51 1008.43 1008.31 1008.19 1007.99 1007.91 1007.75 1007.55 1007.23 1006.91 1006.55 1006.15 1005.87 1005.59 1005.15 1004.79 1004.31 1003.87 1003.35 1002.87 1002.47 1001.99 1001.59 1001.19 1000.83 1000.55 1000.31 999.95 999.75 999.47 999.27 998.99 998.79 998.79 998.79 998.87 999.39 999.79 1000.19 1000.75 1001.31 1001.71 1001.95 1001.99 1001.95 1002.47 1002.95 1003.19 1003.83 1005.39 1006.51 1006.91 1007.59 1007.95 1008.63 1009.51 1010.03 1010.27 1010.87 1011.23 1011.39 1011.83 1012.11 1012.39 1012.43 1012.43 1012.47 1012.59
1008.15 1008.15 1008.27 1008.31 1008.35 1008.31 1008.23 1008.03 1007.99 1007.91 1007.79 1007.63 1007.51 1007.31 1007.11 1006.87 1006.55 1006.19 1005.79 1005.35 1004.95 1004.47 1004.03 1003.43 1002.75 1002.23 1001.71 1001.27 1000.83 1000.35 999.91 999.59 999.39 999.15 999.03 998.83 998.63 998.51 998.35 998.27 998.47 998.63 998.87 998.79 999.15 999.67 1000.19 1000.51 1000.75 1000.87 1000.91 1000.67 1001.15 1002.43 1003.47 1004.51 1005.63 1006.27 1006.99 1007.83 1008.07 1008.31 1008.99 1009.75 1010.31 1010.63 1011.15 1011.27 1011.59 1012.07 1012.23 1012.39 1012.35 1012.55
1008.15 1008.19 1008.11 1008.07 1007.99 1007.95 1007.87 1007.79 1007.79 1007.67 1007.55 1007.43 1007.31 1007.15 1006.99 1006.79 1006.55 1006.23 1005.83 1005.43 1004.95 1004.39 1003.79 1003.03 1002.35 1001.71 1000.99 1000.47 999.99 999.71 999.27 998.79 998.51 998.23 998.19 998.15 997.95 997.79 997.59 997.67 997.71 997.71 997.95 997.99 998.15 998.79 998.75 998.19 998.55 999.87 1001.11 1001.83 1002.15 1002.87 1004.11 1005.11 1005.87 1006.47 1007.15 1007.63 1008.07 1008.07 1008.31 1008.79 1009.39 1009.99 1010.31 1010.83 1011.19 1011.43 1011.79 1011.99 1012.11 1012.39
1008.15 1008.11 1008.03 1007.95 1007.87 1007.75 1007.79 1007.83 1007.75 1007.67 1007.55 1007.47 1007.43 1007.31 1007.03 1006.75 1006.35 1006.03 1005.63 1005.11 1004.63 1004.07 1003.35 1002.51 1001.75 1001.11 1000.43 999.83 999.31 998.95 998.63 998.27 998.03 997.87 997.83 997.79 997.59 997.31 997.11 997.03 996.79 996.67 996.95 997.07 997.31 997.27 997.47 998.71 999.67 1000.51 1001.47 1002.07 1002.11 1002.51 1003.55 1004.31 1005.51 1006.59 1007.07 1007.31 1007.67 1008.07 1008.47 1008.71 1008.99 1009.23 1009.47 1010.07 1010.75 1011.11 1011.59 1012.15 1012.19 1012.31
1007.99 1007.87 1007.75 1007.63 1007.55 1007.67 1007.79 1007.79 1007.71 1007.63 1007.59 1007.51 1007.39 1007.19 1006.91 1006.59 1006.15 1005.75 1005.43 1004.99 1004.39 1003.71 1003.03 1002.35 1001.59 1000.83 999.99 999.23 998.59 998.19 997.83 997.51 997.31 997.07 996.99 996.95 996.95 996.83 996.71 996.63 996.47 996.23 995.91 995.59 995.87 996.79 998.15 998.95 999.71 1000.75 1001.71 1002.03 1002.03 1002.23 1003.75 1004.95 1005.79 1006.51 1006.75 1007.07 1007.63 1008.31 1008.67 1008.91 1009.11 1009.31 1009.51 1009.39 1009.47 1009.83 1010.23 1010.87 1011.67 1012.11
1007.75 1007.75 1007.75 1007.71 1007.79 1007.83 1007.75 1007.67 1007.59 1007.55 1007.55 1007.43 1007.27 1007.03 1006.87 1006.63 1006.31 1005.87 1005.39 1004.83 1004.23 1003.71 1003.23 1002.67 1001.99 1001.27 1000.39 999.43 998.55 997.87 997.35 996.95 996.67 996.47 996.35 996.31 996.27 996.11 996.07 995.99 996.07 996.15 996.43 996.99 997.75 998.47 999.03 999.67 1000.23 1000.99 1001.75 1002.35 1002.59 1003.15 1004.55 1005.59 1006.39 1006.67 1006.95 1007.35 1007.75 1008.31 1008.75 1008.99 1009.31 1009.55 1009.75 1009.79 1009.79 1009.79 1009.87 1009.99 1010.15 1010.47
1008.07 1008.03 1007.99 1007.91 1007.83 1007.75 1007.67 1007.55 1007.51 1007.47 1007.47 1007.43 1007.35 1007.19 1006.99 1006.71 1006.31 1005.83 1005.23 1004.71 1004.27 1003.95 1003.63 1003.15 1002.43 1001.79 1001.11 1000.27 999.31 998.47 997.67 996.91 996.35 995.99 995.83 995.79 995.75 995.75 995.75 995.91 996.27 996.71 997.31 997.59 997.95 998.55 999.27 1000.15 1000.99 1001.39 1001.87 1002.83 1003.19 1003.75 1005.15 1006.11 1006.71 1007.07 1007.43 1007.51 1007.79 1008.19 1008.47 1008.91 1009.27 1009.51 1009.59 1009.71 1009.59 1009.63 1009.79 1010.03 1010.15 1010.55
Wind_Speed
6 5 6 7 6 6 5 4 4 5 4 5 6 6 8 7 6 5 5 6 7 6 7 5 7 9 9 8 7 7 8 9 10 8 8 8 7 12 16 15 15 15 15 14 14 13 12 11 10 10 11 11 11 10 10 9 9 9 7 6 6 6 5 3 2 3 4 4 5 5 6 7 7 6
6 6 6 5 6 6 5 6 5 4 6 6 6 7 6 7 8 7 8 8 6 5 5 6 5 6 9 8 7 7 9 11 12 8 8 8 8 12 15 16 15 15 15 14 13 13 13 12 11 11 11 11 11 10 10 10 9 9 7 7 6 6 5 3 2 3 3 4 5 5 6 7 6 6
7 7 8 6 6 5 6 6 5 4 5 6 6 7 6 7 7 8 6 5 6 6 7 7 4 7 10 9 9 8 8 10 12 8 8 9 12 15 12 16 16 16 15 14 14 13 13 13 12 12 11 10 10 10 10 10 9 9 8 8 7 7 6 3 2 3 4 4 5 6 6 6 6 6
7 8 8 8 8 7 5 6 6 6 6 6 7 7 7 7 6 7 7 8 9 5 7 6 6 6 8 9 9 9 7 8 13 8 8 9 12 10 8 13 16 16 16 15 14 14 14 14 13 12 12 11 11 10 10 10 9 9 9 8 8 7 5 4 3 3 4 5 5 6 6 6 6 6
8 9 9 9 8 7 7 7 7 6 6 6 7 7 7 7 6 7 7 8 8 5 3 4 5 6 5 6 8 9 8 7 7 7 8 8 8 8 8 8 12 16 16 16 15 14 14 14 14 13 12 12 11 11 11 10 10 9 9 9 8 6 6 5 5 6 6 5 5 6 6 5 5 5
8 8 10 10 9 8 9 8 8 8 7 6 6 7 7 7 8 8 8 8 7 9 3 3 3 2 4 7 6 10 9 8 5 7 7 6 7 8 7 7 8 14 16 16 16 15 14 14 14 14 14 13 13 12 12 11 11 10 10 9 8 7 7 6 7 7 6 6 6 6 6 5 5 5
10 9 10 11 10 7 8 9 9 7 7 6 7 8 6 8 8 8 8 7 7 7 7 3 3 5 4 8 7 7 7 7 7 8 7 7 6 6 7 7 7 11 15 16 16 15 15 15 14 14 14 14 14 13 13 12 12 12 11 10 9 9 9 8 8 7 6 6 7 6 6 5 4 4
11 12 11 12 11 10 10 10 9 8 7 8 8 7 7 7 8 8 7 8 7 6 7 5 7 5 6 7 4 5 5 6 6 7 7 5 6 7 6 7 7 9 14 16 16 15 15 15 14 14 14 14 14 14 14 13 12 12 12 11 10 10 10 9 9 7 6 7 7 6 6 5 4 4
12 12 13 13 11 10 11 10 9 8 9 8 7 8 7 7 7 5 7 7 6 6 8 6 5 4 5 5 5 5 7 5 5 4 6 7 8 7 7 6 7 9 13 15 16 16 16 15 15 14 15 15 15 15 14 14 14 14 13 12 12 12 11 10 9 8 8 8 7 6 6 5 4 4
12 13 14 13 11 11 12 12 11 10 11 9 9 9 8 7 5 6 6 6 6 7 8 7 6 4 6 5 6 6 7 7 7 6 6 5 5 6 6 7 6 5 5 5 8 11 13 14 15 15 15 15 15 15 15 14 15 14 13 13 12 12 11 10 9 9 9 8 8 7 6 5 5 5
12 12 12 12 12 12 13 13 13 12 11 10 11 11 10 7 6 7 7 6 6 7 7 6 7 6 6 6 8 6 6 7 8 9 7 8 8 6 8 8 6 5 7 8 12 11 11 12 11 13 16 16 16 15 15 14 14 14 12 13 13 12 11 11 10 10 9 8 8 7 7 6 5 5
13 13 13 12 12 13 13 14 13 12 12 10 11 10 9 8 8 8 7 6 7 8 7 8 8 7 6 5 4 1 4 6 7 8 9 11 9 9 8 8 8 6 6 7 7 8 9 9 10 10 11 13 13 14 13 14 12 13 11 12 12 12 12 12 11 10 9 8 8 7 7 6 5 5
13 12 12 13 13 14 16 18 16 15 14 11 12 11 10 11 10 9 7 8 8 9 8 9 6 6 7 7 7 7 8 12 15 9 7 9 8 7 6 8 7 6 7 7 7 7 7 7 7 7 7 8 11 12 14 10 13 13 12 12 12 12 12 12 11 10 9 8 8 7 7 6 6 6
13 13 12 13 18 18 18 18 18 19 18 18 15 12 11 12 11 11 10 10 10 10 11 11 10 9 11 11 11 12 12 10 6 5 8 11 9 3 6 6 7 7 7 7 9 9 6 7 8 7 8 7 7 6 7 8 9 11 14 14 13 13 13 13 12 11 10 9 8 8 8 7 6 5
13 12 13 12 13 15 16 17 20 20 21 20 21 20 17 15 15 12 13 12 12 12 12 12 10 12 13 13 11 12 11 8 11 11 8 10 7 9 9 11 5 6 10 9 9 10 7 7 9 8 8 7 6 6 8 12 14 14 13 14 14 14 13 13 13 12 11 10 9 9 8 7 6 6
11 12 12 11 10 11 14 14 15 18 21 21 22 22 21 20 20 19 16 14 12 13 13 12 13 13 14 14 12 12 11 12 9 10 9 11 11 11 11 10 11 5 11 10 9 11 6 7 9 8 9 7 7 9 11 14 14 14 14 14 15 14 14 14 13 13 11 11 10 10 9 7 7 6
12 11 10 11 10 11 16 15 14 13 15 19 22 22 22 21 21 21 23 21 17 13 14 14 14 14 14 14 14 13 14 10 11 10 11 11 10 11 12 13 11 7 9 9 9 11 8 7 8 9 9 7 7 8 12 15 15 15 15 15 15 15 15 15 14 13 12 12 12 11 10 9 7 6
12 12 11 11 11 11 11 12 14 14 14 13 14 14 14 15 19 21 24 24 23 18 14 14 16 15 13 15 15 14 11 11 14 12 14 12 11 11 15 17 14 4 8 11 8 7 9 7 7 10 9 7 7 7 10 15 15 15 15 15 16 16 16 16 15 14 13 13 12 12 11 10 8 8
13 12 12 12 13 13 12 12 13 14 14 13 13 14 15 16 17 17 18 17 15 15 15 15 17 16 14 16 16 11 10 15 14 14 16 16 16 15 13 8 4 4 8 8 7 11 7 5 8 10 8 6 7 6 9 15 15 15 15 16 16 17 17 16 15 14 14 14 13 13 12 10 10 9
12 12 13 13 13 14 14 15 18 17 14 13 15 15 15 15 16 18 19 19 19 18 17 17 18 17 16 16 14 12 11 11 11 10 8 5 5 7 9 12 9 9 6 9 10 8 7 5 9 8 6 5 7 7 6 11 15 15 16 16 17 18 17 16 16 15 15 15 15 14 13 12 11 10
12 12 13 13 13 14 15 16 17 18 17 15 16 15 15 15 15 18 15 15 20 23 24 24 24 23 20 18 18 17 19 15 12 10 10 12 9 10 13 12 9 11 6 8 11 9 9 6 8 7 4 7 8 7 7 6 10 15 16 17 18 18 17 16 16 15 15 15 15 14 13 12 11 8
11 13 18 17 15 15 15 16 18 19 17 16 16 15 15 16 18 19 11 8 13 20 22 24 24 22 21 20 19 18 19 20 16 13 17 14 10 14 13 13 11 9 8 10 9 7 12 5 6 6 1 1 4 5 5 6 7 12 13 17 18 18 17 16 16 15 15 15 16 15 13 13 8 5
12 12 14 20 19 18 17 19 18 20 17 15 16 15 15 18 20 18 6 12 13 10 11 15 16 17 20 18 16 16 20 21 20 18 18 12 13 14 13 13 9 9 12 9 12 12 9 8 7 8 3 5 3 2 5 6 6 7 7 8 10 14 16 16 16 16 16 15 15 15 13 13 7 5
12 12 12 14 19 22 21 19 19 19 21 18 16 14 16 18 22 11 9 14 12 14 15 15 15 17 16 16 16 16 15 15 18 19 18 15 14 14 14 13 13 14 11 6 15 13 8 8 8 8 9 6 5 4 5 6 7 7 7 7 7 11 13 13 11 14 14 14 15 14 13 13 9 5
12 11 12 12 16 19 20 21 21 20 20 21 17 17 17 18 18 14 12 13 17 16 16 15 13 13 13 14 14 15 16 16 16 16 17 17 16 16 15 14 14 15 13 8 18 11 10 8 9 7 7 4 3 4 4 6 6 7 8 9 10 8 8 8 6 8 11 15 15 14 14 13 11 9
11 11 11 11 14 18 19 20 21 21 19 21 16 19 21 23 22 17 14 12 10 11 12 11 10 12 12 12 13 16 16 17 17 17 18 19 19 18 16 16 16 15 15 11 23 15 10 6 11 10 8 7 4 5 5 5 5 7 6 8 8 8 9 9 8 8 7 7 8 9 12 16 12 14
11 11 12 13 16 16 18 18 19 19 22 17 15 22 22 23 24 20 13 12 10 7 8 8 12 14 13 13 15 15 16 16 16 16 17 16 15 13 13 14 15 17 13 10 16 14 13 10 10 13 12 10 9 5 6 8 5 5 5 7 8 7 7 8 9 8 8 7 8 11 13 11 10 13
11 11 11 10 14 16 17 17 17 18 17 14 18 21 23 23 22 16 13 7 3 3 9 14 14 14 14 13 13 15 15 14 14 15 11 7 7 9 10 12 16 16 13 10 14 15 15 13 10 12 13 13 12 11 10 4 4 9 10 7 7 7 6 7 7 7 7 7 7 7 4 6 5 5
2 3 7 9 7 6 8 8 8 8 11 15 16 17 17 14 10 11 11 5 5 8 13 15 15 16 15 13 14 14 14 12 9 2 1 2 8 11 12 15 17 17 12 10 14 16 16 15 13 12 11 11 12 11 10 10 9 8 9 9 5 7 7 7 7 8 8 7 7 6 7 7 5 5
11 13 12 10 5 3 3 3 4 6 7 10 13 15 14 9 10 10 11 7 10 12 19 18 16 12 8 10 14 16 11 5 3 7 11 13 13 13 14 15 15 15 13 11 13 13 14 14 14 14 13 12 13 12 11 9 7 8 9 10 8 3 5 7 7 7 7 7 7 7 7 6 6 6
10 12 10 8 8 7 6 6 6 6 6 6 7 7 7 8 9 10 10 9 7 12 13 14 14 9 12 15 14 13 8 4 7 11 12 13 14 13 13 14 14 13 12 12 13 16 18 17 15 16 15 13 12 13 12 11 11 10 9 8 10 10 7 7 7 7 7 7 6 4 3 5 4 5
7 7 7 8 7 6 7 7 6 5 5 6 6 6 5 5 7 9 10 8 6 8 10 12 11 8 11 14 16 14 10 9 12 11 12 14 14 14 13 12 13 13 13 14 15 16 17 17 16 15 18 17 16 11 9 12 12 11 10 9 9 6 6 9 7 6 6 5 4 4 5 6 6 6
0 1 2 3 4 3 4 5 5 5 5 5 5 5 5 6 7 7 6 8 9 8 9 11 11 12 12 13 13 14 12 13 15 12 12 13 14 13 13 16 16 16 16 16 15 14 14 16 16 17 15 14 16 15 13 10 8 9 11 10 9 8 6 6 8 7 5 5 6 6 6 5 6 7
2 3 3 4 3 4 3 4 4 5 5 6 6 6 6 7 7 8 8 9 10 9 10 11 11 12 12 12 12 13 15 14 14 15 16 15 14 14 15 16 17 18 18 17 16 15 13 11 10 9 7 5 2 12 16 14 10 9 9 10 10 10 8 7 6 7 8 6 6 6 4 5 6 6
4 4 4 4 3 4 4 5 5 6 6 7 7 8 8 8 9 9 9 9 9 9 10 11 11 12 13 14 13 14 14 15 15 14 14 15 14 16 16 17 18 18 18 17 16 14 14 14 12 8 6 6 5 2 7 5 12 9 9 9 10 9 8 7 7 6 6 6 5 7 6 6 7 7
4 3 3 3 4 3 4 4 3 5 5 5 6 7 8 9 9 9 10 10 11 12 12 12 12 12 13 14 14 14 15 15 15 15 15 14 14 15 16 18 19 19 18 18 17 13 13 14 14 16 15 12 12 9 11 9 6 12 12 9 7 8 7 7 6 6 6 6 6 7 7 7 8 7
5 3 3 2 3 4 5 5 5 6 6 6 7 7 8 9 10 10 12 12 12 12 13 13 13 13 14 14 14 14 15 15 15 15 15 15 16 17 17 18 18 17 16 16 14 13 13 15 15 16 16 15 16 18 13 6 7 9 12 11 8 7 8 7 7 7 6 7 7 8 7 7 7 7
4 3 1 0 1 2 3 4 5 5 6 6 7 7 8 8 9 11 11 11 12 12 13 13 14 14 14 13 14 15 15 15 15 15 15 17 18 19 20 19 18 17 18 16 14 15 15 16 18 20 21 20 19 16 13 5 6 6 9 10 10 9 7 8 7 8 7 6 8 8 6 7 7 7
3 2 1 1 1 2 2 4 4 5 5 6 6 7 8 9 10 11 11 12 12 13 13 14 14 14 15 15 15 15 15 14 14 14 15 16 18 20 20 20 20 18 17 17 14 15 15 16 18 19 20 20 22 21 19 16 14 11 11 14 10 10 9 9 9 7 7 7 6 4 3 1 2 2
2 1 0 0 1 2 3 3 4 4 6 6 7 8 9 10 10 11 12 12 12 13 13 14 16 15 15 15 15 15 16 17 16 15 14 14 14 15 15 12 13 13 15 18 16 15 17 19 18 18 18 19 15 11 12 11 7 7 9 11 15 14 10 9 9 9 7 7 7 7 6 3 5 1
1 1 1 1 2 4 5 5 5 6 6 7 8 8 9 9 10 10 11 13 14 14 14 14 14 15 15 14 14 14 15 14 14 14 14 14 15 15 18 17 16 16 17 18 18 17 19 22 19 17 12 8 12 13 11 9 10 9 10 10 13 14 16 15 11 9 7 6 8 8 8 7 6 2
0 0 1 1 2 4 4 5 5 5 6 6 7 8 8 9 9 14 14 14 13 12 12 12 12 13 14 14 14 14 15 15 14 13 12 12 13 14 18 18 18 16 16 16 16 19 17 11 14 16 12 12 13 15 13 12 10 10 8 5 5 7 10 15 14 12 10 10 8 6 4 4 3 3
1 2 4 4 5 4 4 4 4 5 6 6 6 7 8 9 9 10 9 11 11 11 11 12 12 12 13 12 12 12 13 13 13 13 13 12 12 13 12 13 16 18 18 17 15 12 11 13 14 13 11 10 8 11 14 11 10 7 6 5 5 5 6 8 11 11 7 14 16 11 8 7 7 4
6 6 5 4 5 4 4 4 5 4 5 6 7 7 7 8 9 9 9 9 10 11 11 11 12 13 14 13 12 12 12 12 11 12 12 12 12 13 12 12 12 12 6 3 7 7 8 10 10 11 11 10 9 11 11 9 8 7 6 5 5 7 8 7 4 1 1 4 6 3 8 13 11 12
6 5 5 5 4 4 3 4 4 5 5 6 6 7 7 7 7 8 8 9 10 11 11 11 10 10 11 11 10 10 9 10 10 10 11 10 8 5 6 1 9 11 10 8 8 13 13 13 11 10 11 11 8 10 9 7 6 6 5 6 7 6 6 6 7 6 6 6 8 11 9 10 8 8
Wind_Direction
194 195 199 204 214 222 212 212 204 202 200 195 182 176 171 168 162 194 217 228 215 239 207 200 229 208 213 213 211 208 210 209 202 206 205 208 214 217 216 217 221 224 227 231 232 233 234 233 228 230 233 236 239 242 245 251 257 263 271 280 289 295 301 308 310 305 306 308 307 309 310 316 325 332
194 197 198 206 216 226 210 217 215 202 202 205 196 194 189 170 180 184 190 236 210 229 233 212 216 206 211 209 213 209 213 213 203 204 206 209 215 219 216 219 223 227 229 231 232 233 233 232 229 227 229 230 234 238 245 249 252 256 262 267 271 279 279 273 265 282 288 297 301 305 309 313 321 327
193 200 202 204 217 217 218 222 219 215 201 211 207 201 179 192 183 177 177 212 260 187 217 231 215 189 205 202 207 212 217 214 207 204 207 212 216 216 218 219 223 226 228 230 231 232 232 231 229 225 224 227 230 236 240 244 245 247 250 252 254 257 259 248 234 271 290 292 294 297 301 306 312 318
201 204 210 207 211 215 208 221 221 213 211 206 206 202 189 194 192 172 175 199 237 216 210 220 228 204 197 198 200 214 216 216 210 204 208 212 215 217 221 222 223 225 226 227 229 229 229 230 229 225 221 221 225 229 235 237 239 239 237 237 238 239 240 225 240 261 270 276 281 290 294 300 308 313
200 207 215 219 217 210 212 216 220 221 214 208 212 209 194 193 186 177 186 205 239 282 236 223 227 216 184 206 208 207 209 210 213 208 211 211 212 215 217 221 223 223 224 225 226 226 228 229 228 224 220 218 219 222 230 233 233 231 226 224 221 219 216 210 229 243 251 262 273 278 282 287 296 305
208 204 211 221 221 209 216 218 219 215 215 211 214 215 203 199 192 194 180 212 205 236 277 259 275 252 195 213 202 202 203 216 205 205 211 216 214 214 214 220 228 223 222 223 224 226 227 229 227 223 220 218 217 222 227 228 225 222 216 212 208 206 206 208 222 232 239 248 253 256 264 275 286 300
206 207 211 217 216 212 217 223 225 215 216 209 214 219 209 206 199 193 197 179 212 220 241 219 225 220 209 211 212 214 214 208 197 205 212 211 215 222 215 217 224 223 219 220 221 224 227 229 227 222 221 219 218 219 220 221 218 215 212 204 198 198 200 207 217 223 230 236 240 246 254 267 285 301
205 210 213 217 211 210 216 223 224 223 217 213 215 220 219 215 207 196 198 203 194 205 218 241 209 216 200 234 242 214 213 206 208 212 219 215 217 217 217 217 220 223 219 220 221 223 227 230 228 224 222 220 218 215 215 215 212 210 208 198 193 194 199 205 213 220 222 228 236 244 252 263 279 299
207 210 214 216 207 205 214 223 224 221 222 222 217 218 219 217 217 205 202 211 202 195 212 232 228 210 217 225 222 197 198 229 234 237 228 215 217 221 222 221 224 225 219 219 221 223 228 230 229 226 224 220 217 214 213 211 208 208 205 192 191 193 198 204 212 215 220 227 232 234 245 252 269 282
211 212 215 216 206 205 210 219 220 219 220 220 222 223 221 218 209 213 215 209 213 214 222 211 235 227 211 231 229 207 203 202 219 238 245 257 242 226 236 233 229 218 214 220 230 233 235 236 234 230 227 222 217 214 213 210 206 206 201 190 190 193 195 201 207 213 217 223 225 226 231 238 246 258
216 217 219 217 211 208 212 216 216 216 218 215 221 222 222 215 205 213 213 205 212 220 226 234 227 225 230 209 224 227 204 214 206 210 222 245 236 225 221 235 231 224 226 225 219 220 217 221 224 226 225 222 218 214 215 215 208 208 201 192 190 193 195 200 208 214 218 217 214 214 218 224 229 247
218 218 218 219 217 215 214 215 218 213 217 215 220 220 217 212 206 213 210 204 212 221 226 226 230 229 224 241 255 222 167 219 247 223 207 221 227 228 224 225 222 223 219 229 228 233 234 238 235 233 228 228 224 218 219 220 215 211 201 199 194 195 198 202 209 216 220 214 211 212 219 219 220 232
220 220 219 220 219 219 219 217 218 216 213 210 217 219 210 214 212 215 206 208 210 224 224 234 228 228 232 228 209 214 206 207 217 209 200 230 230 223 227 240 224 214 209 226 225 227 210 220 227 214 220 221 214 220 215 218 217 214 200 202 201 198 199 202 209 216 221 220 216 216 220 226 226 224
222 222 221 222 220 220 220 219 220 222 219 218 216 214 206 211 211 214 211 208 213 217 222 228 220 223 232 226 217 219 221 221 222 193 197 222 225 178 235 261 237 206 205 218 229 234 210 208 228 215 223 224 203 208 201 212 208 209 203 202 202 201 201 202 207 212 218 223 224 222 222 225 233 236
224 225 224 227 222 220 222 223 220 221 221 221 223 223 214 210 206 210 213 216 212 214 221 225 218 223 230 230 221 224 225 213 212 215 204 217 205 207 214 237 250 197 193 213 224 238 213 190 220 224 225 219 206 205 209 209 209 208 200 199 199 200 201 202 204 209 217 225 226 227 228 229 232 243
225 226 226 226 226 221 220 221 223 224 224 223 223 224 222 218 215 212 208 212 215 215 221 223 221 219 225 229 219 223 216 220 214 218 212 211 210 212 217 230 229 218 183 201 211 236 210 187 216 227 226 213 203 206 205 205 205 204 198 196 196 197 200 201 203 208 215 223 227 229 227 224 226 234
225 225 225 227 226 230 222 220 223 222 227 229 227 226 227 226 220 221 222 218 215 210 218 223 227 219 222 227 228 217 216 208 215 214 219 220 217 217 222 230 232 224 186 187 211 231 220 180 211 224 229 204 197 204 203 201 199 201 198 194 192 195 198 200 204 207 214 220 226 226 224 220 220 227
226 225 224 226 230 229 224 221 221 224 226 226 228 231 232 232 232 230 227 224 224 221 220 222 230 229 213 226 228 220 205 199 214 211 220 217 218 219 225 227 226 203 159 187 192 233 229 194 202 223 226 195 203 202 199 202 204 199 195 191 191 192 196 201 204 208 213 220 225 224 221 218 216 223
226 226 225 226 231 230 227 223 217 221 224 225 227 227 228 231 233 231 231 227 225 226 229 228 233 234 222 229 233 224 207 212 216 211 216 210 212 219 235 265 248 198 193 184 167 230 225 171 204 226 212 193 207 203 205 205 204 198 194 192 190 190 196 201 204 209 214 221 225 223 220 217 216 219
226 226 225 227 231 232 231 226 214 214 219 224 229 229 229 232 235 237 232 224 221 225 227 230 233 234 229 227 229 224 215 218 223 231 240 240 226 230 237 236 228 229 200 194 193 228 236 180 202 224 205 187 210 210 210 212 207 200 195 192 190 191 195 200 205 210 215 221 226 223 220 218 216 215
225 225 225 226 232 233 234 227 213 213 209 226 228 230 232 233 236 241 235 224 226 228 232 234 237 240 239 234 230 224 216 212 208 216 224 225 201 218 232 237 228 236 185 209 206 217 238 194 198 216 204 197 210 207 214 210 210 203 197 194 193 190 194 200 207 213 216 222 227 226 221 221 219 200
229 227 224 225 230 233 235 225 215 210 203 223 229 231 235 238 240 244 228 227 231 229 234 239 242 244 245 242 238 229 219 214 204 205 223 215 197 223 223 233 226 236 210 213 188 204 232 170 188 194 254 205 244 212 208 200 206 206 202 198 193 191 192 200 210 216 219 223 229 229 223 227 207 170
232 232 227 226 229 233 233 225 217 211 203 222 228 229 233 240 243 244 194 226 234 230 226 238 239 245 244 242 240 237 227 218 211 215 224 212 207 220 220 224 229 245 240 199 169 203 221 168 201 166 135 225 261 212 199 197 197 192 195 204 206 198 193 202 211 217 222 225 230 231 226 229 181 178
231 232 234 230 228 233 236 231 222 215 205 217 227 227 233 240 246 240 212 225 223 233 232 234 227 234 236 234 235 238 234 225 222 222 222 218 213 217 221 216 214 226 231 166 172 202 213 186 198 195 186 169 222 208 176 206 200 196 187 190 200 211 204 207 218 224 229 232 234 235 232 232 178 173
231 231 232 238 229 226 231 233 232 224 214 216 225 229 234 237 245 239 231 228 217 229 234 237 234 234 235 234 233 234 233 229 223 224 225 221 216 214 217 218 219 234 230 176 177 195 205 187 197 177 214 195 170 155 189 193 202 192 192 188 201 211 191 200 197 216 233 236 238 239 241 240 191 185
230 233 235 238 233 227 226 228 231 231 226 221 225 236 237 242 245 244 237 236 228 232 240 243 244 241 236 233 231 232 231 230 226 222 222 221 219 216 216 213 214 225 228 181 180 192 187 188 195 184 192 186 223 169 151 207 194 199 195 197 201 198 189 190 184 210 220 223 229 231 234 239 208 198
229 229 234 240 237 232 230 228 229 231 231 226 230 238 242 243 245 244 243 238 243 258 276 267 249 246 241 237 236 236 238 235 229 227 226 225 224 224 224 228 233 232 227 169 188 188 194 206 190 187 192 196 188 186 189 179 206 165 184 202 206 204 197 182 184 197 207 212 226 227 228 238 216 207
224 232 233 245 245 238 237 235 234 235 235 235 234 236 241 246 248 249 248 289 0 315 255 251 254 251 245 242 246 245 241 240 236 234 231 238 242 238 234 235 241 239 231 182 188 192 194 200 193 201 192 183 190 186 203 208 161 171 191 195 201 200 187 187 186 190 200 204 213 214 201 230 222 180
279 341 336 347 336 287 269 261 260 265 257 249 255 259 264 272 281 271 265 246 137 234 251 247 244 249 251 250 253 256 250 248 257 323 58 223 220 223 223 225 228 231 225 198 194 196 194 198 193 193 193 193 195 201 189 191 176 182 183 166 210 211 194 193 185 187 192 186 197 190 195 201 208 183
292 294 297 310 328 341 299 255 247 255 253 247 242 245 248 248 250 255 257 239 179 209 242 247 247 255 303 285 263 258 259 235 153 169 208 211 217 211 218 224 229 228 222 208 203 197 197 200 195 185 191 197 201 195 192 166 187 184 176 186 184 147 196 178 189 190 174 179 193 194 216 201 202 171
255 263 266 263 266 273 267 253 250 257 261 257 250 245 236 237 244 252 252 246 204 214 240 251 253 239 246 256 270 271 278 244 214 208 213 216 221 213 217 221 226 224 219 214 209 200 197 200 195 183 187 195 200 202 187 180 180 175 188 177 162 183 186 172 180 185 179 180 183 199 209 211 220 200
243 245 263 271 276 277 277 268 267 263 254 250 269 272 272 266 261 263 270 277 252 240 246 254 261 246 237 246 250 255 246 236 239 220 217 219 224 217 211 215 223 220 222 218 218 212 200 196 194 193 191 185 191 194 172 183 181 177 175 176 182 175 153 175 178 187 179 151 151 203 221 198 194 190
166 351 325 330 346 359 322 318 315 318 311 299 280 273 275 272 271 272 267 269 262 246 244 251 253 251 246 246 246 250 246 233 239 233 231 226 225 220 210 217 219 214 216 216 212 210 206 203 199 195 194 189 187 170 170 177 191 169 168 173 171 183 182 179 170 172 139 139 184 197 218 216 197 184
86 62 41 31 19 1 5 335 324 318 318 316 312 309 305 302 300 292 288 279 278 270 259 261 261 257 254 251 246 245 245 242 234 232 226 227 219 220 215 218 220 219 218 217 210 204 199 197 190 185 189 188 158 176 179 183 180 172 168 163 175 185 186 172 177 168 161 167 173 191 211 208 216 210
66 52 48 12 4 359 358 351 339 334 337 328 323 316 313 303 296 292 285 284 281 279 274 267 261 260 258 257 252 246 242 241 237 231 225 227 222 220 220 220 222 219 217 216 210 194 183 187 168 142 107 120 115 285 303 244 164 168 156 171 176 176 176 183 169 177 168 182 154 179 193 203 211 223
71 77 73 33 9 360 354 325 319 312 304 300 299 300 301 298 295 296 294 293 292 288 283 277 271 267 262 258 257 253 251 247 243 236 231 224 224 225 223 223 221 221 216 216 211 189 182 179 171 169 168 169 169 184 214 246 192 155 167 175 174 168 173 175 178 171 172 179 184 172 177 191 208 218
71 45 51 22 339 333 318 314 316 309 303 300 297 295 295 297 298 294 293 294 289 284 281 281 277 273 270 265 262 257 253 249 247 238 234 230 226 227 226 225 223 222 220 220 205 187 183 184 181 171 167 176 184 192 192 147 196 189 158 162 168 174 171 169 161 195 196 179 182 186 181 180 198 220
117 109 137 220 248 272 282 288 293 291 288 286 288 291 288 286 290 291 292 294 291 291 288 285 281 277 273 269 266 262 257 251 247 242 233 228 226 224 222 221 218 216 219 216 200 192 185 185 181 185 179 178 181 181 173 160 157 208 191 160 165 174 174 155 175 193 202 184 187 191 161 163 190 208
121 132 141 257 270 257 269 270 264 273 284 293 297 299 303 304 303 302 301 295 294 291 290 285 281 277 273 270 264 261 260 259 254 249 241 233 230 230 227 223 221 217 212 212 200 192 186 188 189 190 186 179 185 186 175 161 179 169 179 178 161 158 172 170 181 190 187 182 204 162 202 241 126 117
83 84 73 239 269 262 266 275 286 301 310 310 310 309 309 307 305 304 302 300 298 296 290 283 279 275 270 266 265 263 259 255 253 254 253 250 248 250 252 246 238 225 215 214 203 189 188 194 191 193 191 192 179 147 136 128 110 130 156 203 188 168 170 162 180 179 185 191 160 160 186 152 184 310
57 46 352 310 334 331 322 323 326 320 318 316 314 310 308 304 303 304 305 304 301 297 295 290 285 278 273 267 263 261 262 258 253 249 249 253 252 247 242 238 233 222 217 215 201 191 195 199 189 169 153 127 115 111 104 113 135 138 173 194 213 190 165 173 176 173 176 163 164 170 168 172 179 131
138 228 270 301 322 307 326 324 325 317 313 315 311 310 305 305 302 304 303 301 300 295 287 283 282 281 278 271 265 259 258 259 260 261 260 260 258 251 238 234 233 227 222 217 202 199 197 166 130 138 145 140 140 142 147 139 133 151 169 159 155 193 184 182 182 183 173 151 150 145 116 60 51 121
4 348 357 348 328 329 325 315 312 317 313 311 309 309 310 310 312 314 314 310 310 310 314 314 308 300 293 283 271 261 256 253 250 251 250 249 253 256 249 236 236 234 229 223 203 179 150 153 148 141 141 148 135 117 124 136 139 144 141 135 141 154 187 202 198 202 185 172 168 167 164 157 136 183
356 355 337 316 308 313 310 314 318 318 317 314 314 316 316 313 311 308 310 315 322 327 325 324 324 323 316 308 296 282 269 261 253 250 250 251 247 249 250 246 240 235 218 118 93 103 118 125 128 129 129 118 113 107 102 112 132 141 137 141 124 140 177 191 201 180 23 317 282 249 173 160 172 173
338 321 298 287 292 304 323 328 336 333 334 325 321 315 310 304 301 307 316 331 335 334 331 327 329 331 331 325 328 327 319 298 279 261 254 257 265 274 273 259 82 66 49 52 102 121 122 118 112 105 97 102 110 106 109 121 130 131 139 140 144 163 162 158 169 192 216 243 238 222 217 204 203 127